[[{"header":{"parameterUnit":"m.s-1","parameterCategory":1,"la1":30.2991,"la2":30.254,"lo1":-89.0895,"lo2":-89.0444,"dy":0.0017,"dx":0.0017,"nx":28,"ny":28,"refTime":"2024-03-23T09:00:00:Z","depth":0,"parameterNumber":2,"parameterNumberName":"U-component_of_WINDS"},"data":[0,0,0,0,0,0,0,0,0,0,0,0,0,0,0,0,0,0,0,0,0,0,0,0,0,0,0,0,0,0,0,0,0,0,0,0,0,0,0,0,0,0,0,0,0,0,0,0,0,0,0,0,0,0,0,0,0,0,0.8909,0.8908,0,0.8861,0.886,0.886,0.8814,0.8814,0.8813,0.8813,0.8764,0.8763,0.8763,0,0,0,0,0,0,0,0,0,0,0,0,0,0.8962,0.8962,0.8909,0.8908,0.8908,0.8861,0.886,0.886,0.8814,0.8814,0.8813,0.8812,0.8764,0.8763,0.8762,0,0,0,0,0,0,0,0,0,0,0,0,0,0.8929,0.8961,0.8909,0.8879,0.8876,0.8861,0.886,0.886,0.8815,0.8814,0.8813,0.8812,0.8765,0.8763,0.8762,0.8773,0,0,0.8759,0.8758,0,0,0,0,0,0,0,0,0.8931,0.8927,0.8884,0.8881,0.8878,0.8843,0.8861,0.883,0.8815,0.8838,0.8813,0.8812,0.8791,0.8788,0.878,0.877,0.8768,0.8759,0.8758,0.8758,0.8757,0,0,0,0,0,0,0,0.8934,0.8929,0.889,0.8884,0.888,0.8869,0.8863,0.8855,0.882,0.8836,0.8832,0.8827,0.8789,0.8782,0.8779,0.8768,0.8759,0.8758,0.8757,0.8757,0.8766,0.8767,0,0,0,0,0,0,0.894,0.8931,0.8891,0.8888,0.8903,0.8869,0.8862,0.8855,0.882,0.8814,0.8828,0.8825,0.8784,0.878,0.8777,0.8788,0.8758,0.8757,0.8756,0.8765,0.8766,0.8767,0,0,0,0,0,0,0.8942,0.8937,0.8893,0.8909,0.8903,0.8869,0.8861,0.8854,0.8847,0.8814,0.8808,0.8827,0.8783,0.8779,0.8775,0.8786,0.8756,0.8755,0.8764,0.8765,0.8767,0.881,0,0,0,0,0,0,0.8943,0.8938,0.8941,0.8909,0.8902,0.8891,0.8861,0.8854,0.8845,0.8841,0.8811,0.8806,0.8782,0.8777,0.8773,0.8784,0.8754,0.8763,0.8764,0.8766,0.8807,0.8813,0.8817,0,0,0,0,0,0.8945,0.8955,0.8941,0.8937,0.8905,0.8892,0.8887,0.886,0.8846,0.8849,0.8829,0.8807,0.8785,0.8776,0.8773,0.8783,0.8762,0.8764,0.8766,0.8805,0.8812,0.8817,0,0,0,0,0,0,0.8988,0.895,0.8935,0.8934,0.8916,0.8884,0.8887,0.8868,0.8854,0.8851,0.8818,0.8811,0.8812,0.8797,0.8788,0.8792,0.8771,0.8772,0.8802,0.8808,0.8812,0.8816,0.8753,0,0,0,0,0,0.8997,0.8989,0.8957,0.8959,0.8951,0.8921,0.8914,0.8895,0.8876,0.8868,0.8847,0.8829,0.8819,0.8812,0.88,0.8805,0.8799,0.881,0.8815,0.882,0.8821,0.8825,0.883,0.8774,0.8774,0.8774,0,0,0.9016,0.8994,0.8991,0.8967,0.8951,0.8945,0.8915,0.8909,0.8904,0.8867,0.8862,0.8846,0.8824,0.8825,0.8825,0.8813,0.8836,0.8822,0.8826,0.8825,0.8827,0.8833,0.8837,0.8775,0.8775,0.8775,0,0,0.9047,0.903,0.9031,0.9016,0.8993,0.8973,0.8974,0.8944,0.8933,0.8927,0.89,0.8894,0.8876,0.8862,0.8853,0.8882,0.8862,0.8879,0.8905,0.8908,0.8913,0.8917,0.8928,0.8933,0.8881,0.8881,0.8881,0,0.9074,0.9062,0.9034,0.903,0.9021,0.8988,0.8989,0.8976,0.8951,0.8945,0.8933,0.8911,0.8894,0.8892,0.8899,0.8892,0.8893,0.8882,0.8915,0.8918,0.8921,0.8932,0.8936,0.8883,0.8883,0.8883,0.8883,0,0.9097,0.909,0.9093,0.907,0.9061,0.906,0.9032,0.9027,0.9009,0.8991,0.8987,0.8966,0.895,0.8948,0.893,0.8944,0.8938,0.8921,0.8898,0.8929,0.8939,0.8943,0.8887,0.8886,0.8885,0.8885,0,0,0.9152,0.9115,0.9117,0.9107,0.908,0.9074,0.9072,0.9057,0.9054,0.9038,0.9036,0.9023,0.9007,0.8997,0.8977,0.898,0.9007,0.8962,0.8961,0.8972,0.9023,0.9037,0.9042,0.8993,0.8994,0.8994,0.9025,0,0.918,0.9174,0.9149,0.9151,0.9145,0.9115,0.9114,0.9098,0.9081,0.9074,0.9056,0.9048,0.9027,0.902,0.9022,0.9003,0.9016,0.9,0.8992,0.8992,0.8999,0.9047,0.9061,0.9091,0.9029,0.9029,0.903,0,0.9211,0.9198,0.9199,0.9175,0.9171,0.917,0.9156,0.9149,0.9131,0.9119,0.9108,0.9087,0.9085,0.9064,0.9061,0.9051,0.9046,0.9037,0.9037,0.9036,0.9013,0.9048,0.91,0.9105,0.9035,0.9034,0.9034,0,0.9253,0.9235,0.9235,0.9227,0.9197,0.9198,0.9186,0.9167,0.916,0.9148,0.9143,0.9131,0.9124,0.9115,0.9091,0.9078,0.9092,0.9069,0.9083,0.9084,0.9087,0.9087,0.914,0.9083,0.9083,0.9083,0.9083,0,0.9286,0.9289,0.9253,0.9253,0.9255,0.9227,0.9231,0.9216,0.92,0.9197,0.917,0.9168,0.9136,0.9131,0.9112,0.9114,0.9111,0.9102,0.9097,0.9104,0.9106,0.9101,0.9099,0.9084,0.9084,0.9083,0.9083,0,0.9333,0.9309,0.9307,0.928,0.9273,0.9277,0.9254,0.9253,0.9236,0.9232,0.923,0.9203,0.9195,0.9171,0.9157,0.9145,0.9152,0.9142,0.9159,0.9156,0.9172,0.9171,0.9224,0.923,0.9168,0.9169,0.917,0,0.9356,0.9358,0.9332,0.9328,0.9317,0.9311,0.9305,0.9278,0.9272,0.9253,0.9255,0.9245,0.9236,0.9226,0.9206,0.9196,0.9186,0.9205,0.9184,0.9193,0.9188,0.9188,0.9189,0.921,0.9211,0.9211,0.9212,0,0.9401,0.9389,0.9381,0.9369,0.9362,0.9352,0.9339,0.9338,0.9308,0.9304,0.9296,0.9289,0.9276,0.9267,0.9254,0.9243,0.9223,0.9219,0.9222,0.923,0.924,0.9236,0.9172,0.9218,0.9217,0.9217,0.9216,0.9216,0.9437,0.9438,0.942,0.9412,0.9401,0.939,0.9389,0.9372,0.9365,0.9352,0.9337,0.9332,0.9316,0.9296,0.9286,0.9282,0.9271,0.9275,0.9276,0.9278,0.9282,0.924,0.928,0.928,0.9279,0.9279,0.9279,0,0.9481,0.9469,0.9462,0.9446,0.9441,0.9423,0.9409,0.9406,0.9401,0.9388,0.938,0.9373,0.9365,0.9344,0.9335,0.9336,0.9327,0.9334,0.9334,0.9332,0.9292,0.9291,0.9342,0.9342,0.9342,0.9342,0.9342,0.9342,0.9503,0.9504,0.9491,0.9487,0.9474,0.9469,0.9463,0.9454,0.9443,0.9436,0.943,0.9417,0.9401,0.9391,0.9383,0.9377,0.9376,0.9387,0.9378,0.9341,0.9335,0.9329,0.9328,0.9386,0.9386,0.9419,0.9419,0.942]},{"header":{"parameterUnit":"m.s-1","parameterCategory":1,"la1":30.2991,"la2":30.254,"lo1":-89.0895,"lo2":-89.0444,"dy":0.0017,"dx":0.0017,"nx":28,"ny":28,"refTime":"2024-03-23T09:00:00:Z","depth":0,"parameterNumber":3,"parameterNumberName":"V-component_of_WINDS"},"data":[0,0,0,0,0,0,0,0,0,0,0,0,0,0,0,0,0,0,0,0,0,0,0,0,0,0,0,0,0,0,0,0,0,0,0,0,0,0,0,0,0,0,0,0,0,0,0,0,0,0,0,0,0,0,0,0,0,0,-8.5327,-8.5328,0,-8.5407,-8.5408,-8.5409,-8.5349,-8.5346,-8.5344,-8.5341,-8.5416,-8.5421,-8.5425,0,0,0,0,0,0,0,0,0,0,0,0,0,-8.5116,-8.512,-8.5327,-8.5328,-8.5329,-8.5407,-8.5408,-8.5409,-8.5349,-8.5346,-8.5343,-8.534,-8.5415,-8.542,-8.5425,0,0,0,0,0,0,0,0,0,0,0,0,0,-8.5203,-8.5122,-8.5327,-8.5309,-8.5308,-8.5407,-8.5408,-8.5409,-8.535,-8.5346,-8.5342,-8.5339,-8.5413,-8.542,-8.5426,-8.5545,0,0,-8.5446,-8.5449,0,0,0,0,0,0,0,0,-8.5198,-8.5211,-8.531,-8.531,-8.5309,-8.5364,-8.5361,-8.5454,-8.5351,-8.5334,-8.5341,-8.5337,-8.5402,-8.5409,-8.5432,-8.5548,-8.5551,-8.5447,-8.5451,-8.5454,-8.5456,0,0,0,0,0,0,0,-8.5192,-8.5207,-8.5358,-8.5312,-8.5311,-8.5294,-8.5303,-8.5378,-8.5388,-8.5335,-8.5331,-8.5342,-8.5401,-8.5426,-8.5434,-8.5553,-8.5447,-8.5453,-8.5457,-8.5459,-8.577,-8.5775,0,0,0,0,0,0,-8.5189,-8.5202,-8.5356,-8.5361,-8.5243,-8.5302,-8.531,-8.535,-8.5387,-8.5389,-8.5345,-8.5338,-8.5417,-8.5426,-8.5436,-8.5578,-8.5454,-8.546,-8.5464,-8.5766,-8.5771,-8.5776,0,0,0,0,0,0,-8.5184,-8.5203,-8.5352,-8.528,-8.5298,-8.5309,-8.5355,-8.5354,-8.5379,-8.5395,-8.5396,-8.537,-8.5414,-8.5427,-8.5519,-8.558,-8.5463,-8.5469,-8.5761,-8.5768,-8.5774,-8.5863,0,0,0,0,0,0,-8.5179,-8.5202,-8.5248,-8.5282,-8.5302,-8.5436,-8.5358,-8.5358,-8.5392,-8.5384,-8.5418,-8.542,-8.5412,-8.5509,-8.5525,-8.5587,-8.5474,-8.5756,-8.5764,-8.5772,-8.5855,-8.5872,-8.5886,0,0,0,0,0,-8.5171,-8.5269,-8.5251,-8.527,-8.5361,-8.544,-8.5451,-8.5442,-8.5397,-8.5443,-8.5453,-8.5419,-8.5571,-8.5519,-8.5537,-8.5601,-8.5752,-8.5762,-8.5771,-8.5848,-8.5868,-8.5886,0,0,0,0,0,0,-8.5239,-8.5273,-8.5253,-8.5365,-8.5401,-8.543,-8.5487,-8.5464,-8.5511,-8.5502,-8.5486,-8.5494,-8.5591,-8.5605,-8.5547,-8.5718,-8.5654,-8.5667,-8.5706,-8.5726,-8.5741,-8.5736,-8.548,0,0,0,0,0,-8.5267,-8.533,-8.5355,-8.5451,-8.547,-8.5476,-8.551,-8.55,-8.5535,-8.5549,-8.5565,-8.5599,-8.5654,-8.569,-8.5742,-8.5856,-8.5863,-8.5909,-8.5925,-8.5938,-8.595,-8.6012,-8.6033,-8.5808,-8.5808,-8.5808,0,0,-8.5325,-8.5352,-8.5392,-8.5466,-8.5492,-8.5556,-8.5489,-8.5559,-8.5606,-8.5558,-8.5648,-8.5661,-8.5697,-8.5801,-8.5848,-8.5816,-8.6014,-8.595,-8.5961,-8.5965,-8.6024,-8.6045,-8.6064,-8.5814,-8.5813,-8.5812,0,0,-8.5465,-8.5491,-8.5575,-8.5603,-8.5645,-8.5648,-8.5668,-8.5702,-8.571,-8.5799,-8.5765,-8.582,-8.5915,-8.5943,-8.5969,-8.6121,-8.6091,-8.6137,-8.622,-8.6281,-8.6298,-8.6314,-8.6369,-8.6388,-8.6149,-8.6149,-8.615,0,-8.5531,-8.5629,-8.562,-8.5694,-8.5727,-8.569,-8.5773,-8.58,-8.5856,-8.5878,-8.5842,-8.5963,-8.5984,-8.6094,-8.6132,-8.6154,-8.6176,-8.6133,-8.6297,-8.6313,-8.6327,-8.6379,-8.6399,-8.6155,-8.6154,-8.6154,-8.6153,0,-8.5709,-8.5777,-8.5839,-8.5897,-8.5937,-8.6015,-8.6016,-8.6057,-8.6044,-8.6051,-8.6143,-8.6167,-8.6224,-8.6249,-8.6236,-8.6358,-8.6337,-8.63,-8.6234,-8.6354,-8.6403,-8.6422,-8.6163,-8.6161,-8.6159,-8.6158,0,0,-8.5892,-8.5946,-8.5969,-8.5995,-8.6039,-8.609,-8.6166,-8.6224,-8.626,-8.6299,-8.6362,-8.6445,-8.6411,-8.6441,-8.643,-8.6483,-8.6603,-8.6439,-8.6439,-8.6469,-8.6739,-8.6768,-8.6791,-8.6583,-8.6587,-8.659,-8.6736,0,-8.6034,-8.617,-8.6165,-8.6291,-8.6354,-8.632,-8.6386,-8.6419,-8.6428,-8.648,-8.6488,-8.6548,-8.6498,-8.6516,-8.6567,-8.6577,-8.6657,-8.6566,-8.664,-8.6643,-8.6633,-8.6816,-8.6846,-8.6984,-8.6755,-8.6758,-8.6761,0,-8.6218,-8.6267,-8.6401,-8.6437,-8.6463,-8.6523,-8.6576,-8.6628,-8.6664,-8.6666,-8.6701,-8.6682,-8.6757,-8.6691,-8.6794,-8.6733,-8.6763,-8.6772,-8.6777,-8.6784,-8.6709,-8.6828,-8.7027,-8.7048,-8.679,-8.6788,-8.6786,0,-8.634,-8.6439,-8.6532,-8.6555,-8.6599,-8.6642,-8.6662,-8.6695,-8.6731,-8.6776,-8.6799,-8.6851,-8.688,-8.6921,-8.6916,-8.6868,-8.7021,-8.6954,-8.7024,-8.7025,-8.7058,-8.7056,-8.7265,-8.7077,-8.7077,-8.7076,-8.7076,0,-8.6499,-8.6582,-8.6587,-8.6645,-8.6736,-8.6728,-8.6819,-8.6833,-8.6863,-8.6922,-8.6894,-8.6948,-8.6939,-8.6993,-8.6989,-8.7076,-8.7088,-8.7091,-8.7089,-8.7094,-8.7094,-8.7114,-8.7104,-8.7082,-8.708,-8.7079,-8.7078,0,-8.665,-8.6657,-8.6757,-8.6791,-8.6802,-8.6868,-8.6896,-8.695,-8.6956,-8.703,-8.7047,-8.7057,-8.7119,-8.7119,-8.7189,-8.7186,-8.7293,-8.7279,-8.7281,-8.7279,-8.735,-8.7343,-8.7579,-8.7609,-8.7401,-8.7403,-8.7405,0,-8.6752,-8.6816,-8.6858,-8.6897,-8.692,-8.6982,-8.7019,-8.7013,-8.7053,-8.71,-8.7147,-8.7208,-8.7256,-8.7357,-8.7369,-8.7423,-8.7411,-8.749,-8.7418,-8.7422,-8.7413,-8.7409,-8.7416,-8.7504,-8.7506,-8.7508,-8.7509,0,-8.6932,-8.6933,-8.6989,-8.7047,-8.7093,-8.7137,-8.7178,-8.721,-8.7209,-8.7254,-8.7319,-8.7357,-8.743,-8.749,-8.7542,-8.756,-8.7535,-8.7532,-8.7551,-8.7557,-8.7556,-8.7558,-8.732,-8.7526,-8.7525,-8.7523,-8.7523,-8.7522,-8.7062,-8.7117,-8.7157,-8.722,-8.7251,-8.729,-8.7343,-8.7357,-8.7413,-8.7474,-8.7466,-8.7539,-8.7573,-8.7641,-8.7664,-8.7719,-8.7691,-8.7719,-8.7726,-8.7733,-8.7741,-8.7547,-8.7728,-8.7728,-8.7727,-8.7727,-8.7727,0,-8.7241,-8.7265,-8.7324,-8.7384,-8.7434,-8.7408,-8.7452,-8.7495,-8.756,-8.7596,-8.7645,-8.772,-8.7778,-8.7796,-8.7852,-8.7893,-8.7882,-8.7908,-8.7904,-8.7909,-8.7763,-8.7741,-8.7915,-8.7915,-8.7915,-8.7915,-8.7915,-8.7915,-8.734,-8.7434,-8.7439,-8.7547,-8.7569,-8.7643,-8.767,-8.7706,-8.7735,-8.7821,-8.787,-8.7882,-8.791,-8.7969,-8.8021,-8.8024,-8.8046,-8.8076,-8.8075,-8.7938,-8.7919,-8.7901,-8.7881,-8.8081,-8.8081,-8.8217,-8.8218,-8.8219]}]]